Погода в Балахте

Погода в Балахте : погода сейчас, прогноз погоды и архив. Всё, что Вы хотите узнать о погоде в Балахте!

Поиск расширенной информации на нашем сайте:

Полезная информация: Все подробности тюлевые занавески фото на сайте.

Другие новости

Новости СМИ2

Главная страница сайта

Новости сайта

02.10.2013

Напоминаем, что на нашем новом сайте вы можете получить высокодетализированные прогнозы погоды по пунктам России, СНГ и мира (включающие важные для авиации метеовеличины, такие как направление и скорость ветра, видимость, явления погоды, количество и форма облачности, нижняя и верхняя граница облачности), а также ознакомиться с разнообразными материалами по авиационной метеорологии и подборкой полезных ссылок на эту тему.

Сайт Метеоцентр.Азия посвящён разработке технологий оптимизации авиаметеорологического обслуживания, включая проектирование и перспективное создание нескольких автоматизированных авиаметеорологических систем:
- система выпуска высокодетальных прогностических карт явлений погоды для нижнего воздушного пространства по России и ближнему зарубежью;
- система верификации прогнозов TAF (выпускаемых синоптиками официальных АМСГ РФ и ближнего зарубежья) и AUTOTAF (выпускаемых сайтом Метеоцентр.Азия) - выявление ошибок, онлайн-сопоставление с фактической погодой METAR, автоматическое внесение коррективов в прогнозы при резком отклонении фактической погоды от прогноза, подсчёт оправдываемости прогнозов по элементам и в целом;
- система обработки, анализа и отображения авиаметеорологической информации для применения провайдерами метеорологической информации.

Рекомендуем: Обслуживание системы питания дизельного двигателя ауди.

Погода в Балахте - сегодня

Время (UTC), дата Ветер
(°,м/с) 
Видим.   Явления Облачность Т
(°С)
Тd
(°С)
f(%) Тe
(°С)
Pmin
(гПа)
dP
(гПа)
Po
(мм)
O2
(г/м3)
Тmin Tmax R s Состояние
почвы
18 26.05.17 210 (ЮЗ) 20000 м    9/9 1000 м 
[Sc]
+3.8 +0.4 78 +5  1023.2  1.9  738  293           
21 26.05.17 270 (З) 20000 м    8/8 1000 м 
[Sc]
+4.4 +0.5 76 +4  1024.8  1.6  739  293           
00 27.05.17 330 (СЗ) 20000 м    8/8 600 м кучево-дожд. 
[Cb cap]
+5.1 +0.4 72 +3  1027.9  3.2  741  293  +3.4        сухая 
03 27.05.17 310 (СЗ) 20000 м    6/5 1000 м верхняя 
[Cu Sc|Ci fib]
+7.2 -0.6 58 +7  1029.2  1.5  742  291           
06 27.05.17 230 (ЮЗ) 20000 м    1/0 верхняя 
[Ci fib]
+10.8 -0.7 45 +11  1027.8  -0.9  742  288           
09 27.05.17 270 (З) 20000 м    3/0 верхняя 
[Ci sp]
+13.8 -2.3 33 +14  1024.7  -2.6  740  284           
15 27.05.17 090 (В) 20000 м    4/0 средняя, верхняя 
[Ac lent|Ci sp]
+9.2 -0.1 52 +9  1021.3  -1.6  737  287           
18 27.05.17 100 (В) 20000 м    ясно 
+5 -1.2 64 +5  1021  -0.9  736  291           
21 27.05.17 110 (В) 20000 м    6/0 верхняя 
[Ci sp]
+2.5 -1.4 75 +2  1020.3  -1  735  294           
03 28.05.17 100 (В) 20000 м    1/0 верхняя 
[Ci fib]
+17.2 +1.2 34 +18  1016.8  -1  734  278           
06 28.05.17 140 (ЮВ) 20000 м    3/0 верхняя 
[Ci sp]
+22.5 +1.1 24 +23  1013.7  -2.4  733  273           
09 28.05.17 030 (СВ) 20000 м    8/0 верхняя 
[Ci ing]
+25.2 -1.9 17 +25  1011  -2.3  731  270           
15 28.05.17 080 (В) 20000 м    6/0 средняя, верхняя 
[Ac lent|Ci sp]
+16.4 +5.4 48 +17  1009  -0.8  729  276           
18 28.05.17 080 (В) 20000 м    3/0 средняя 
[Ac lent]
+14.3 +5.4 55 +15  1008.5  -0.7  728  278           
21 28.05.17 080 (В) 20000 м    8/0 средняя 
[Ac As]
+13 +5.3 59 +13  1007.9  -0.8  728  279           
00 29.05.17 тихо ()   20000 м    8/0 верхняя 
[Ci sp]
+15.4 +6.4 55 +15  1007.3  -0.3  727  276  +9        сухая 
03 29.05.17 270 (З) 20000 м    9/3 1000 м верхняя 
[Sc|Cs]
+20.4 +6 39 +20  1006.1  -0.6  727  272           
06 29.05.17 230 (ЮЗ) 20000 м    9/3 1000 м средняя, верхняя 
[Cu med, cong|Ac lent|Ci sp]
+26 +7.4 31 +26  1004.5  -0.7  726  266           
12 29.05.17 110 (В) 20000 м  {гроза, ливн. осадки}  9/9 600 м кучево-дожд. 
[Cb cap]
+21 +11.9 56 +25  1006.1  -0.6  727  270    +28.1     
15 29.05.17 070 (В) 20000 м    8/5 1000 м средняя 
[Sc diur, vesp|Ac As]
+16 +11.4 74 +21  1006.5  -0.2  727  275           
18 29.05.17 070 (В) 20000 м    ясно 
+13 +10.9 87 +16  1006.6  -0.4  727  277           
21 29.05.17 100 (В) 20000 м    ясно 
+9.4 +8.8 96 +9  1006.6  -0.4  726  281           
00 30.05.17 070 (В) 20000 м    8/3 1000 м верхняя 
[Sc|Ci]
+14.2 +11.6 84 +19  1005.9  726  276  +8.6        влажная 
03 30.05.17 090 (В) 20000 м    9/0 верхняя 
[Cs]
+22.2 +11.7 51 +26  1003.8  -1.1  726  268           
06 30.05.17 160 (Ю) 20000 м    9/3 1000 м средняя, верхняя 
[Cu med, cong|Ac trans|Ci sp]
+25.4 +8.6 34 +25  1002.2  -1.2  725  266           
Время (UTC), дата Ветер
(°,м/с) 
Видим.   Явления Облачность Т
(°С)
Тd
(°С)
f(%) Тe
(°С)
Pmin
(гПа)
dP
(гПа)
Po
(мм)
O2
(г/м3)
Тmin Tmax R s Состояние
почвы

Для получения пояснительной информации подведите курсор к названию столбца.

ПОГОДА в Балахте - архив

Всё, что Вы хотите узнать о погоде в Балахте - удобно и подробно!

Выберите нужную дату (начиная с 1 января 2015* года) и нажмите кнопку "Найти".
Будут отображены архивные сводки погоды по пункту Балахта, начиная с указанной даты.


Отображать данные в формате CSV (для использования в таблицах Excel)


Внимание! Наш архив погоды предназначен исключительно для личного некоммерческого использования в познавательных целях. Если Вам необходимы официальные справки о состоянии погоды (для производственных, юридических, коммерческих и т.п. целей), обращайтесь в органы Росгидромета.

*Примечание: данная дата относится к архиву по метеостанциям СССР (Россия, СНГ, Балтия).
Архив по метеостанциям Зарубежной Европы и Азии (кроме Китая) хранится 10 дней, по другим регионам земного шара (Китай, Африка, Америка, Австралия, Океания) - 1 день.

Балахта - район местоположения метеостанции


Название, широта, долгота, высота метеостанции:
Балахта 55.4°ш. 91.7°д. 321 м над ур. моря [Российская Федерация]

Дополнительная информация

В oтличие oт бoльшинства пoгoдных сайтoв мы публикуем пoдрoбную метеoинфoрмацию в детальнoм прoфессиoнальнoм фoрмате.

Характеристики температуры и влажнoсти вoздуха измеряются на высoте 2 м в тени вдали oт зданий и деревьев.
Скoрoсть ветра измеряется на высoте 10 м (на урoвне рoста челoвека скoрoсть ветра ниже в 1.5-2 раза). Если метеoстанция нахoдится в гoрoде или в лесу, тo скoрoсть ветра занижена на 2-4 м/с пo сравнению с oткрытым местoм. Скoрoсть ветра над акватoриями крупных рек и oзёр, а также на вершинах хoлмoв на 2-5 м/с выше, чем в oбычных услoвиях.
Атмoсфернoе давление в разных тoчках местнoсти мoжет значительнo oтличаться oт давления на метеoстанции, в зависимoсти oт услoвий рельефа (при пoдъёме на 10 м давление пoнижается примернo на 1 мм рт.ст.).